EZY39TV EGAA-EGJJ

Flight info

Callsign EZY39TV
Flight time 1h 5m
Altitude 37000
Route LISBO DCT RINGA DCT BABGU DCT ETIGA DCT INKOB Q39 NOMSU UQ4 WAL N862 KARNO DCT ALHUP DCT ABWIV DCT PACSE DCT TONQU N862 SKERY
Aircraft A320/M-SDE3FGHIRWY/LB1

Departure

Time 2026-05-07 14:41
Airport Belfast International Airport (EGAA)

Arrival

Time 2026-05-07 15:46
Airport Jersey Airport (EGJJ)
Time Latitude Longitude Altitude Speed Heading
2026-05-07 14:22 54.66180 -6.21414 272 ft 0 kts 245°
2026-05-07 14:35 54.66182 -6.21407 272 ft 3 kts 245°
2026-05-07 14:35 54.66193 -6.21366 277 ft 4 kts 238°
2026-05-07 14:35 54.66209 -6.21336 273 ft 4 kts 188°
2026-05-07 14:35 54.66218 -6.21335 280 ft 0 kts 155°
2026-05-07 14:37 54.66217 -6.21335 280 ft 1 kts 155°
2026-05-07 14:38 54.66178 -6.21304 272 ft 11 kts 155°
2026-05-07 14:38 54.66088 -6.21231 274 ft 15 kts 155°
2026-05-07 14:38 54.66053 -6.21132 272 ft 11 kts 68°
2026-05-07 14:38 54.66089 -6.21000 272 ft 16 kts 65°
2026-05-07 14:39 54.66152 -6.20766 272 ft 26 kts 65°
2026-05-07 14:39 54.66237 -6.20448 272 ft 31 kts 65°
2026-05-07 14:39 54.66325 -6.20122 272 ft 29 kts 65°
2026-05-07 14:39 54.66397 -6.19824 272 ft 19 kts 88°
2026-05-07 14:40 54.66323 -6.19678 275 ft 14 kts 155°
2026-05-07 14:40 54.66260 -6.19682 272 ft 10 kts 248°
2026-05-07 14:40 54.66256 -6.19699 272 ft 0 kts 248°
2026-05-07 14:40 54.66233 -6.19788 274 ft 36 kts 244°
2026-05-07 14:41 54.66021 -6.20571 275 ft 105 kts 245°
2026-05-07 14:41 54.65630 -6.22015 295 ft 156 kts 240°
2026-05-07 14:41 54.65192 -6.23699 919 ft 154 kts 243°
2026-05-07 14:41 54.64754 -6.25429 1495 ft 164 kts 243°
2026-05-07 14:42 54.64117 -6.27178 1814 ft 183 kts 218°
2026-05-07 14:42 54.62856 -6.27898 2124 ft 209 kts 175°
2026-05-07 14:42 54.61460 -6.26815 2547 ft 239 kts 144°
2026-05-07 14:42 54.60220 -6.24761 3228 ft 253 kts 135°
2026-05-07 14:43 54.59061 -6.22428 4098 ft 259 kts 133°
2026-05-07 14:43 54.57914 -6.20003 4976 ft 263 kts 132°
2026-05-07 14:43 54.56755 -6.17573 5789 ft 268 kts 133°
2026-05-07 14:43 54.55544 -6.15091 6600 ft 273 kts 134°
2026-05-07 14:44 54.54292 -6.12578 7407 ft 277 kts 134°
2026-05-07 14:44 54.53030 -6.10041 8248 ft 281 kts 130°
2026-05-07 14:44 54.52027 -6.07102 9062 ft 290 kts 116°
2026-05-07 14:44 54.51257 -6.03874 9900 ft 293 kts 115°
2026-05-07 14:45 54.50463 -6.00576 10413 ft 308 kts 115°
2026-05-07 14:45 54.49603 -5.97042 10636 ft 332 kts 115°
2026-05-07 14:45 54.48682 -5.93273 10962 ft 348 kts 115°
2026-05-07 14:45 54.47736 -5.89389 11619 ft 354 kts 115°
2026-05-07 14:46 54.46781 -5.85456 12317 ft 358 kts 116°
2026-05-07 14:46 54.45817 -5.81477 13023 ft 362 kts 116°
2026-05-07 14:46 54.44845 -5.77464 13721 ft 366 kts 116°
2026-05-07 14:46 54.43858 -5.73414 14338 ft 369 kts 116°
2026-05-07 14:47 54.42857 -5.69327 14946 ft 373 kts 116°
2026-05-07 14:47 54.41845 -5.65206 15561 ft 376 kts 116°
2026-05-07 14:47 54.40821 -5.61047 16185 ft 379 kts 116°
2026-05-07 14:47 54.39743 -5.57041 16754 ft 381 kts 122°
2026-05-07 14:48 54.38298 -5.53227 17357 ft 382 kts 128°
2026-05-07 14:48 54.36772 -5.49468 17942 ft 385 kts 128°
2026-05-07 14:48 54.35230 -5.45687 18487 ft 389 kts 128°
2026-05-07 14:48 54.33675 -5.41875 19007 ft 392 kts 128°
2026-05-07 14:49 54.32109 -5.38034 19537 ft 395 kts 128°
2026-05-07 14:49 54.30529 -5.34165 20079 ft 397 kts 128°
2026-05-07 14:49 54.28944 -5.30285 20625 ft 399 kts 128°
2026-05-07 14:49 54.27330 -5.26387 21160 ft 401 kts 129°
2026-05-07 14:50 54.25631 -5.22591 21671 ft 403 kts 131°
2026-05-07 14:50 54.23878 -5.18918 22168 ft 405 kts 133°
2026-05-07 14:50 54.22056 -5.15229 22652 ft 407 kts 133°
2026-05-07 14:50 54.20214 -5.11533 23123 ft 410 kts 133°
2026-05-07 14:51 54.18362 -5.07799 23584 ft 413 kts 133°
2026-05-07 14:51 54.16514 -5.04025 23974 ft 415 kts 133°
2026-05-07 14:51 54.14673 -5.00226 24371 ft 416 kts 132°
2026-05-07 14:51 54.12828 -4.96398 24742 ft 418 kts 132°
2026-05-07 14:52 54.10978 -4.92561 25108 ft 420 kts 132°
2026-05-07 14:52 54.09114 -4.88703 25492 ft 421 kts 132°
2026-05-07 14:52 54.07246 -4.84854 25858 ft 422 kts 132°
2026-05-07 14:52 54.05368 -4.81000 26224 ft 424 kts 132°
2026-05-07 14:53 54.03513 -4.77169 26584 ft 425 kts 131°
2026-05-07 14:53 54.01684 -4.73207 26928 ft 427 kts 130°
2026-05-07 14:53 53.99892 -4.69172 27298 ft 428 kts 129°
2026-05-07 14:53 53.98141 -4.65160 27654 ft 429 kts 129°
2026-05-07 14:54 53.96364 -4.61086 27976 ft 430 kts 129°
2026-05-07 14:54 53.94572 -4.57004 28304 ft 431 kts 129°
2026-05-07 14:54 53.92781 -4.52955 28614 ft 432 kts 129°
2026-05-07 14:54 53.90965 -4.48889 28901 ft 433 kts 129°
2026-05-07 14:55 53.89128 -4.44815 29142 ft 435 kts 130°
2026-05-07 14:55 53.87293 -4.40762 29414 ft 436 kts 129°
2026-05-07 14:55 53.85477 -4.36634 29685 ft 438 kts 128°
2026-05-07 14:55 53.83712 -4.32410 29942 ft 439 kts 127°
2026-05-07 14:56 53.82010 -4.28191 30208 ft 439 kts 126°
2026-05-07 14:56 53.80306 -4.23901 30507 ft 438 kts 126°
2026-05-07 14:56 53.78627 -4.19685 30799 ft 437 kts 126°
2026-05-07 14:56 53.76917 -4.15444 31103 ft 435 kts 126°
2026-05-07 14:57 53.75205 -4.11251 31439 ft 432 kts 127°
2026-05-07 14:57 53.73488 -4.07085 31762 ft 431 kts 127°
2026-05-07 14:57 53.71773 -4.02949 32055 ft 429 kts 127°
2026-05-07 14:57 53.70055 -3.98824 32345 ft 429 kts 127°
2026-05-07 14:58 53.68340 -3.94706 32631 ft 427 kts 127°
2026-05-07 14:58 53.66630 -3.90593 32921 ft 427 kts 127°
2026-05-07 14:58 53.64944 -3.86544 33176 ft 427 kts 127°
2026-05-07 14:58 53.63234 -3.82444 33454 ft 426 kts 127°
2026-05-07 14:59 53.61534 -3.78373 33745 ft 425 kts 127°
2026-05-07 14:59 53.59831 -3.74302 34037 ft 424 kts 127°
2026-05-07 14:59 53.58132 -3.70251 34278 ft 424 kts 127°
2026-05-07 14:59 53.56431 -3.66197 34465 ft 424 kts 127°
2026-05-07 15:00 53.54725 -3.62137 34642 ft 425 kts 127°
2026-05-07 15:00 53.53020 -3.58080 34856 ft 425 kts 127°
2026-05-07 15:00 53.51310 -3.54020 35051 ft 425 kts 127°
2026-05-07 15:00 53.49606 -3.49987 35223 ft 426 kts 127°
2026-05-07 15:01 53.47888 -3.45916 35396 ft 427 kts 126°
2026-05-07 15:01 53.46388 -3.41594 35553 ft 430 kts 117°
2026-05-07 15:01 53.45198 -3.36969 35702 ft 431 kts 115°
2026-05-07 15:01 53.44048 -3.32417 35850 ft 432 kts 115°
2026-05-07 15:02 53.42865 -3.27776 35998 ft 433 kts 115°
2026-05-07 15:02 53.41671 -3.23137 36145 ft 433 kts 116°
2026-05-07 15:02 53.40225 -3.18730 36289 ft 431 kts 126°
2026-05-07 15:02 53.38349 -3.14816 36428 ft 429 kts 136°
2026-05-07 15:03 53.36125 -3.11538 36559 ft 428 kts 146°
2026-05-07 15:03 53.33588 -3.08927 36691 ft 427 kts 155°
2026-05-07 15:03 53.30906 -3.06774 36811 ft 428 kts 155°
2026-05-07 15:03 53.28219 -3.04629 36975 ft 428 kts 155°
2026-05-07 15:04 53.22823 -3.00325 37029 ft 431 kts 155°
2026-05-07 15:04 53.17396 -2.96005 37030 ft 433 kts 155°
2026-05-07 15:05 53.11997 -2.91719 37030 ft 433 kts 155°
2026-05-07 15:05 53.06272 -2.88858 37027 ft 431 kts 174°
2026-05-07 15:06 53.00287 -2.88868 37020 ft 431 kts 182°
2026-05-07 15:06 52.94298 -2.89383 37009 ft 432 kts 183°
2026-05-07 15:07 52.88297 -2.90093 37000 ft 432 kts 188°
2026-05-07 15:07 52.82338 -2.91525 37001 ft 433 kts 188°
2026-05-07 15:08 52.76364 -2.92916 37004 ft 434 kts 188°
2026-05-07 15:08 52.70377 -2.94191 37005 ft 434 kts 183°
2026-05-07 15:09 52.64373 -2.94689 37012 ft 434 kts 183°
2026-05-07 15:09 52.58332 -2.95177 37012 ft 434 kts 183°
2026-05-07 15:10 52.52302 -2.95670 37013 ft 434 kts 183°
2026-05-07 15:10 52.46264 -2.96179 37007 ft 435 kts 184°
2026-05-07 15:11 52.40216 -2.96680 37008 ft 435 kts 184°
2026-05-07 15:11 52.34166 -2.97168 37017 ft 435 kts 184°
2026-05-07 15:12 52.28118 -2.97654 37024 ft 435 kts 184°
2026-05-07 15:12 52.22107 -2.98143 37020 ft 435 kts 184°
2026-05-07 15:13 52.16057 -2.98630 37017 ft 435 kts 184°
2026-05-07 15:13 52.10004 -2.99127 37018 ft 435 kts 184°
2026-05-07 15:14 52.03982 -2.99632 37024 ft 436 kts 184°
2026-05-07 15:14 51.97920 -3.00122 37036 ft 436 kts 184°
2026-05-07 15:15 51.91856 -3.00610 37050 ft 437 kts 184°
2026-05-07 15:15 51.85792 -3.01200 37063 ft 436 kts 187°
2026-05-07 15:16 51.79769 -3.02393 37071 ft 436 kts 189°
2026-05-07 15:16 51.73772 -3.03834 37066 ft 435 kts 189°
2026-05-07 15:17 51.67807 -3.05165 37068 ft 435 kts 189°
2026-05-07 15:17 51.61816 -3.06404 37063 ft 436 kts 188°
2026-05-07 15:18 51.55802 -3.07613 37057 ft 436 kts 188°
2026-05-07 15:18 51.49782 -3.08836 37053 ft 435 kts 189°
2026-05-07 15:19 51.43794 -3.10086 37060 ft 435 kts 189°
2026-05-07 15:19 51.37776 -3.11335 37063 ft 435 kts 189°
2026-05-07 15:20 51.31767 -3.12566 37031 ft 435 kts 189°
2026-05-07 15:20 51.25760 -3.13794 37025 ft 435 kts 188°
2026-05-07 15:21 51.19784 -3.15003 37032 ft 435 kts 188°
2026-05-07 15:21 51.13830 -3.16210 37032 ft 435 kts 189°
2026-05-07 15:22 51.07828 -3.17428 37030 ft 435 kts 189°
2026-05-07 15:22 51.02796 -3.18453 37035 ft 435 kts 189°
2026-05-07 15:23 50.96793 -3.19662 37045 ft 435 kts 188°
2026-05-07 15:23 50.90788 -3.20865 37054 ft 435 kts 188°
2026-05-07 15:24 50.84819 -3.22064 37061 ft 435 kts 189°
2026-05-07 15:24 50.78812 -3.23272 37062 ft 435 kts 189°
2026-05-07 15:25 50.72850 -3.24471 37068 ft 435 kts 189°
2026-05-07 15:25 50.66832 -3.25675 36135 ft 440 kts 189°
2026-05-07 15:26 50.63794 -3.26277 35376 ft 439 kts 188°
2026-05-07 15:26 50.60758 -3.26874 34494 ft 440 kts 188°
2026-05-07 15:26 50.57704 -3.27475 33531 ft 442 kts 188°
2026-05-07 15:26 50.54658 -3.28076 32604 ft 441 kts 188°
2026-05-07 15:27 50.51617 -3.28678 31634 ft 441 kts 188°
2026-05-07 15:27 50.48568 -3.29280 30687 ft 442 kts 188°
2026-05-07 15:27 50.45568 -3.29872 30068 ft 436 kts 188°
2026-05-07 15:27 50.42543 -3.30468 29393 ft 430 kts 188°
2026-05-07 15:28 50.39580 -3.30838 28789 ft 424 kts 181°
2026-05-07 15:28 50.36689 -3.30491 28181 ft 420 kts 172°
2026-05-07 15:28 50.33871 -3.29537 27579 ft 417 kts 168°
2026-05-07 15:28 50.31061 -3.28502 26966 ft 412 kts 168°
2026-05-07 15:29 50.28280 -3.27492 26369 ft 408 kts 168°
2026-05-07 15:29 50.25523 -3.26499 25773 ft 405 kts 169°
2026-05-07 15:29 50.22785 -3.25511 25187 ft 402 kts 168°
2026-05-07 15:29 50.20073 -3.24531 24616 ft 399 kts 168°
2026-05-07 15:30 50.17381 -3.23559 24063 ft 396 kts 168°
2026-05-07 15:30 50.14705 -3.22591 23494 ft 393 kts 168°
2026-05-07 15:30 50.12085 -3.21643 22949 ft 389 kts 168°
2026-05-07 15:30 50.09463 -3.20697 22444 ft 384 kts 168°
2026-05-07 15:31 50.06876 -3.19769 21976 ft 379 kts 168°
2026-05-07 15:31 50.04313 -3.18850 21506 ft 375 kts 169°
2026-05-07 15:31 50.01783 -3.17909 21059 ft 372 kts 166°
2026-05-07 15:31 49.99381 -3.16472 20613 ft 370 kts 155°
2026-05-07 15:32 49.97171 -3.14416 20151 ft 369 kts 149°
2026-05-07 15:32 49.95037 -3.12217 19700 ft 366 kts 149°
2026-05-07 15:32 49.92918 -3.10047 19232 ft 364 kts 149°
2026-05-07 15:32 49.90806 -3.07894 18761 ft 362 kts 149°
2026-05-07 15:33 49.88707 -3.05758 18291 ft 360 kts 149°
2026-05-07 15:33 49.86617 -3.03628 17771 ft 359 kts 149°
2026-05-07 15:33 49.84541 -3.01513 17288 ft 356 kts 149°
2026-05-07 15:33 49.82475 -2.99411 16800 ft 354 kts 149°
2026-05-07 15:34 49.80423 -2.97328 16319 ft 352 kts 149°
2026-05-07 15:34 49.78376 -2.95252 15837 ft 350 kts 149°
2026-05-07 15:34 49.76340 -2.93193 15363 ft 349 kts 149°
2026-05-07 15:34 49.74335 -2.91163 14890 ft 348 kts 149°
2026-05-07 15:35 49.72313 -2.89117 14402 ft 347 kts 149°
2026-05-07 15:35 49.70295 -2.87075 13927 ft 347 kts 149°
2026-05-07 15:35 49.68277 -2.85036 13396 ft 346 kts 149°
2026-05-07 15:35 49.66271 -2.83012 12904 ft 343 kts 149°
2026-05-07 15:36 49.64281 -2.81007 12404 ft 340 kts 149°
2026-05-07 15:36 49.62301 -2.79018 11905 ft 338 kts 149°
2026-05-07 15:36 49.60341 -2.77048 11408 ft 335 kts 149°
2026-05-07 15:36 49.58394 -2.75091 10891 ft 332 kts 149°
2026-05-07 15:37 49.56468 -2.73157 10510 ft 327 kts 149°
2026-05-07 15:37 49.54603 -2.71283 10382 ft 312 kts 149°
2026-05-07 15:37 49.52822 -2.69491 10260 ft 300 kts 149°
2026-05-07 15:37 49.51109 -2.67766 10119 ft 288 kts 149°
2026-05-07 15:38 49.49460 -2.66108 9952 ft 279 kts 149°
2026-05-07 15:38 49.47853 -2.64500 9711 ft 273 kts 149°
2026-05-07 15:38 49.46273 -2.62929 9316 ft 275 kts 149°
2026-05-07 15:38 49.44668 -2.61337 8925 ft 273 kts 149°
2026-05-07 15:39 49.43026 -2.59865 8469 ft 272 kts 156°
2026-05-07 15:39 49.41344 -2.58583 8128 ft 269 kts 155°
2026-05-07 15:39 49.39671 -2.57293 7706 ft 268 kts 155°
2026-05-07 15:39 49.38009 -2.56009 7303 ft 267 kts 155°
2026-05-07 15:40 49.36354 -2.54735 6897 ft 266 kts 155°
2026-05-07 15:40 49.34703 -2.53468 6499 ft 264 kts 154°
2026-05-07 15:40 49.33062 -2.52209 5993 ft 266 kts 154°
2026-05-07 15:40 49.31396 -2.50934 5580 ft 264 kts 154°
2026-05-07 15:41 49.29789 -2.49703 5423 ft 252 kts 154°
2026-05-07 15:41 49.28259 -2.48529 5314 ft 239 kts 154°
2026-05-07 15:41 49.26785 -2.47520 5220 ft 225 kts 165°
2026-05-07 15:41 49.25258 -2.47108 4909 ft 222 kts 172°
2026-05-07 15:42 49.23731 -2.46806 4572 ft 220 kts 173°
2026-05-07 15:42 49.22211 -2.46511 4256 ft 218 kts 173°
2026-05-07 15:42 49.20714 -2.46220 3950 ft 216 kts 172°
2026-05-07 15:42 49.19322 -2.45467 3634 ft 215 kts 140°
2026-05-07 15:43 49.18606 -2.43510 3337 ft 218 kts 101°
2026-05-07 15:43 49.18609 -2.41221 3036 ft 219 kts 86°
2026-05-07 15:43 49.18842 -2.38919 2724 ft 219 kts 83°
2026-05-07 15:43 49.19121 -2.36638 2413 ft 218 kts 83°
2026-05-07 15:44 49.19390 -2.34363 2103 ft 217 kts 83°
2026-05-07 15:44 49.19637 -2.32098 1803 ft 213 kts 84°
2026-05-07 15:44 49.19854 -2.29957 1562 ft 196 kts 85°
2026-05-07 15:44 49.20045 -2.27968 1277 ft 182 kts 85°
2026-05-07 15:45 49.20215 -2.26130 1016 ft 166 kts 86°
2026-05-07 15:45 49.20387 -2.24501 846 ft 147 kts 84°
2026-05-07 15:45 49.20511 -2.23020 647 ft 137 kts 87°
2026-05-07 15:45 49.20626 -2.21596 456 ft 134 kts 86°
2026-05-07 15:46 49.20831 -2.19161 285 ft 58 kts 83°
2026-05-07 15:46 49.20864 -2.18756 283 ft 34 kts 82°
2026-05-07 15:46 49.20888 -2.18470 281 ft 17 kts 83°
2026-05-07 15:47 49.20834 -2.18376 283 ft 12 kts 174°
2026-05-07 15:47 49.20760 -2.18430 284 ft 12 kts 218°
2026-05-07 15:47 49.20732 -2.18530 287 ft 11 kts 263°
2026-05-07 15:47 49.20721 -2.18661 284 ft 14 kts 263°
2026-05-07 15:48 49.20707 -2.18836 284 ft 19 kts 262°
2026-05-07 15:48 49.20688 -2.19054 284 ft 21 kts 263°
2026-05-07 15:48 49.20685 -2.19228 284 ft 14 kts 284°
2026-05-07 15:48 49.20708 -2.19370 286 ft 13 kts 281°
2026-05-07 15:49 49.20701 -2.19500 284 ft 12 kts 259°
2026-05-07 15:49 49.20685 -2.19615 284 ft 10 kts 246°
2026-05-07 15:49 49.20634 -2.19678 284 ft 9 kts 211°
2026-05-07 15:49 49.20614 -2.19751 284 ft 7 kts 263°
2026-05-07 15:50 49.20603 -2.19814 288 ft 4 kts 218°
2026-05-07 15:50 49.20577 -2.19811 284 ft 3 kts 173°
2026-05-07 15:50 49.20557 -2.19807 284 ft 3 kts 173°
2026-05-07 15:50 49.20551 -2.19806 284 ft 0 kts 173°